Dewpoint
50 48 49 49 50 50 50 50 50 50 50 50 50 50 50 50 50 51 51 51 51 52 55 55 55 54 49 39 39 47 43 41 40 37 34 32 28 24 23 22 28 28 25 26 26 26 28
49 48 48 49 49 49 49 49 49 49 50 50 50 50 50 50 50 51 51 51 52 54 54 54 54 52 46 24 42 44 39 39 38 35 33 35 33 31 26 23 23 31 30 29 27 27 28
48 48 48 49 48 49 49 49 49 49 49 50 50 50 49 50 50 52 53 53 53 54 52 52 52 46 35 37 42 40 39 39 40 39 34 38 36 32 30 26 33 30 27 25 26 27 27
47 48 48 48 48 48 48 48 48 49 49 49 49 49 50 51 51 52 52 52 53 53 50 50 50 40 31 41 45 39 38 37 40 40 40 41 38 34 30 32 27 25 23 19 25 28 30
48 47 47 47 47 48 48 48 48 48 49 49 48 49 50 51 51 52 52 51 52 51 49 47 44 38 34 40 38 39 39 36 37 39 40 38 38 33 33 26 20 20 15 16 22 28 30
47 47 46 47 47 47 47 47 48 48 48 48 48 49 50 51 52 52 49 47 49 48 48 39 31 31 30 34 38 38 38 37 35 35 36 38 35 29 29 24 14 12 14 13 12 24 26
46 46 46 47 46 47 47 47 47 48 48 47 47 49 50 51 51 50 48 40 36 31 33 31 30 23 27 34 37 36 38 36 35 32 26 30 26 24 22 22 20 18 16 11 12 16 22
46 45 46 46 46 46 46 46 47 47 47 47 47 49 50 51 50 47 48 36 41 43 30 34 33 31 30 33 29 33 36 31 27 26 25 25 21 23 23 22 20 18 17 16 16 15 15
45 45 45 45 45 45 45 46 46 46 47 46 47 49 50 50 48 44 41 43 46 44 35 30 31 31 31 33 29 32 34 31 28 25 22 21 20 24 22 19 18 18 17 15 13 11 14
44 44 44 45 45 45 45 45 46 46 46 46 47 49 49 47 42 40 39 42 45 45 25 26 30 33 32 31 31 35 35 33 27 24 24 19 24 23 21 20 19 13 15 16 15 13 10
44 44 44 44 44 44 44 45 45 45 45 46 47 49 47 44 40 37 40 43 46 43 4 25 29 32 25 28 30 34 36 34 26 24 23 15 19 20 19 18 16 13 20 19 17 14 13
44 43 43 44 43 44 44 44 44 44 45 45 47 48 43 42 40 42 45 46 44 29 8 22 25 22 19 17 22 30 32 34 30 25 24 22 24 24 24 25 24 21 16 15 14 13 13
43 43 43 43 43 43 43 44 43 44 44 45 46 47 37 31 33 41 46 44 26 7 12 19 22 21 16 14 17 16 22 21 20 11 17 15 14 24 25 22 18 19 20 15 5 13 11
43 42 42 41 42 42 43 43 43 43 43 44 46 45 39 30 36 45 41 26 6 13 13 24 21 18 9 17 15 11 20 20 19 18 17 16 16 20 20 22 21 20 20 16 9 3 5
43 42 41 41 42 42 42 42 42 42 42 44 45 44 37 30 41 45 33 16 21 20 23 21 18 12 11 15 17 9 15 18 19 20 17 15 12 14 19 18 18 14 9 15 14 15 15
43 42 40 41 41 41 41 41 41 41 42 44 41 34 32 29 41 37 23 16 23 26 25 22 13 10 7 14 12 8 13 15 18 18 19 19 12 11 14 11 9 13 10 12 12 8 4
43 41 40 40 41 40 40 40 39 40 42 41 40 28 29 35 39 29 15 25 26 23 28 25 19 15 15 16 17 11 12 17 17 15 17 13 13 8 8 3 1 2 7 7 6 7 7
42 40 40 40 40 40 40 39 38 40 41 38 32 18 30 34 28 21 21 25 25 24 23 26 25 22 19 20 16 15 18 16 15 13 11 12 11 7 -2 -2 2 -1 -3 -3 -2 -0 1
42 40 39 39 39 39 39 38 38 39 39 37 25 21 30 32 15 17 22 20 20 19 18 20 21 20 20 18 7 16 20 19 17 9 4 2 -3 -11 -9 5 4 -3 -4 -2 -2 -1 -0
41 39 39 39 39 39 38 37 38 39 37 35 22 16 21 20 16 16 19 19 18 18 16 15 16 15 14 14 15 14 16 18 14 6 12 6 -1 -5 -7 0 0 -3 -3 -2 -2 3 4
40 39 38 39 39 38 37 37 37 38 35 33 18 18 22 14 12 14 14 17 15 13 15 14 11 10 6 1 6 3 4 5 7 16 12 5 2 1 1 2 1 -0 -4 -5 0 4 5
40 38 39 39 38 37 37 37 36 37 33 29 20 14 15 14 13 11 11 12 11 12 12 11 9 6 1 -4 -3 -7 -0 -0 2 13 6 5 3 2 2 2 1 -3 -4 -4 3 8 7
39 38 39 38 38 37 37 36 36 35 33 25 24 21 19 15 11 6 10 12 12 13 13 9 6 5 3 10 12 11 11 9 7 5 4 5 6 2 1 0 -0 -3 7 10 9 9 11
39 39 39 38 37 38 36 36 36 34 33 29 27 19 13 8 9 10 13 12 11 10 12 10 7 4 17 16 15 13 12 12 10 10 10 8 7 5 4 6 0 11 11 15 8 9 11
39 41 38 37 38 39 37 35 36 33 31 29 30 24 14 8 13 13 11 13 15 13 11 11 16 17 18 15 8 -0 3 6 8 10 11 11 10 7 2 1 -0 11 10 7 6 7 11
41 39 37 36 38 39 37 36 34 35 31 31 32 33 22 12 12 12 12 10 9 10 12 16 17 19 19 11 2 -0 -7 -4 -0 7 10 11 12 10 5 3 -2 10 10 7 9 5 9
40 38 38 36 39 38 37 36 34 34 33 32 31 35 25 19 20 17 13 11 13 10 11 13 12 16 16 10 3 -0 -2 4 -1 -0 6 6 7 9 8 6 7 10 8 6 3 4 7
38 38 37 37 39 38 36 35 34 34 32 32 31 33 29 24 23 24 23 20 17 14 10 15 16 17 13 10 3 2 3 6 5 2 4 2 3 4 6 4 3 5 3 3 7 5 5
39 39 37 37 37 37 36 34 33 33 34 31 28 30 30 28 26 26 26 25 25 25 19 19 15 16 21 17 14 10 5 4 3 1 10 8 8 7 7 7 8 3 8 5 5 5 6
Wind_Speed
7 7 8 8 9 9 10 10 10 11 11 12 13 14 15 16 16 15 14 14 14 14 13 10 7 7 4 3 4 3 5 7 7 5 5 6 6 5 7 5 2 7 8 3 6 2 6
7 9 9 10 10 11 11 12 13 13 13 13 14 14 15 15 15 15 14 13 13 12 11 7 6 5 2 2 3 4 4 4 7 6 4 7 6 6 6 4 3 4 8 12 8 9 7
6 7 9 11 11 12 13 14 14 15 15 16 16 16 16 15 15 15 15 14 12 10 8 5 5 4 3 2 2 4 1 2 5 6 3 4 5 3 8 6 6 6 9 12 17 12 5
4 6 8 10 12 13 14 15 16 16 17 17 18 18 17 17 17 17 17 14 10 8 6 5 4 4 3 1 5 1 2 1 2 3 3 2 4 5 3 5 4 4 7 6 6 14 3
4 6 9 10 12 14 15 16 17 17 18 18 18 17 18 17 17 17 17 12 7 6 5 5 3 3 4 3 0 3 4 3 2 1 2 3 3 3 3 3 6 10 7 11 3 9 4
2 5 8 10 13 14 15 16 17 18 18 18 19 18 18 17 17 16 13 6 5 6 6 5 5 1 2 2 2 3 1 3 3 4 4 3 4 3 5 9 7 7 7 10 8 9 10
1 3 6 10 12 14 16 17 17 18 19 20 20 19 19 18 18 15 10 3 2 1 8 4 3 1 3 2 2 1 3 4 3 4 3 3 3 9 11 12 12 6 10 14 16 9 9
2 4 7 9 10 13 15 17 18 18 19 20 20 20 20 19 16 15 6 4 3 2 2 2 1 4 1 1 2 5 4 3 1 6 4 3 7 6 5 5 4 8 13 17 16 16 10
1 4 7 10 12 13 14 16 17 18 19 20 20 20 20 19 13 5 9 4 3 3 2 3 2 3 2 4 4 3 6 3 4 5 5 8 8 2 3 7 9 11 15 16 19 20 14
2 4 7 9 10 13 14 15 16 18 19 19 19 18 20 19 3 3 3 4 3 3 3 3 3 1 1 1 2 2 3 2 3 3 7 9 5 3 6 10 10 15 9 10 13 13 11
4 1 4 9 11 12 13 14 15 17 17 18 18 17 17 9 6 2 3 4 2 1 5 2 3 1 1 2 1 1 1 3 3 6 2 6 3 5 8 7 10 4 11 11 11 15 21
6 3 2 6 11 13 14 15 16 16 17 17 17 15 16 5 3 2 5 4 2 2 5 2 1 1 3 1 2 3 3 3 0 5 8 16 6 4 2 12 9 9 11 14 18 15 14
7 4 3 4 8 12 13 15 16 17 16 16 15 11 7 4 2 5 3 3 2 3 1 2 1 1 3 1 2 3 5 10 5 8 4 12 8 5 2 7 8 5 7 6 6 12 19
8 4 2 6 7 9 12 14 16 17 17 15 13 8 0 4 3 3 2 1 4 2 2 1 1 5 2 4 3 1 4 4 13 7 5 4 1 4 9 6 6 11 7 8 8 11 17
8 5 2 5 9 10 12 14 16 17 17 16 10 3 3 2 1 2 2 2 3 5 3 3 3 3 5 2 1 1 5 5 6 10 3 7 4 3 8 3 3 3 9 8 8 19 16
9 5 3 4 8 10 13 14 15 16 15 14 5 3 4 3 1 2 1 3 2 3 3 2 2 1 3 4 3 1 7 2 3 6 9 3 10 7 4 6 7 6 9 6 6 10 22
11 6 3 3 7 11 12 14 15 15 11 7 3 5 2 1 1 2 3 2 4 4 4 4 4 2 1 3 2 4 4 3 3 5 4 5 5 2 14 2 8 10 6 5 4 7 8
12 7 3 3 5 9 12 15 16 15 8 1 3 3 2 1 2 2 1 4 2 3 4 1 1 3 2 3 3 3 2 5 5 3 3 5 5 8 12 20 5 15 8 4 3 6 11
12 7 3 2 5 8 11 13 16 12 4 2 2 1 0 1 4 6 5 3 5 1 4 1 3 3 1 1 2 2 4 7 6 4 4 4 2 9 4 7 5 7 8 10 11 13 18
13 8 4 0 4 7 10 13 14 8 4 2 2 2 2 2 1 1 6 5 3 4 2 3 2 0 2 3 1 0 3 3 4 2 0 1 3 8 14 13 10 11 14 13 12 6 13
13 8 4 2 4 7 10 13 13 5 2 1 3 1 1 2 1 3 3 6 6 2 2 0 2 1 0 2 2 4 2 4 7 3 4 2 6 11 12 10 15 18 16 13 8 8 4
15 10 6 3 4 6 8 13 12 1 1 2 3 3 3 3 1 6 1 2 5 3 0 2 2 6 1 1 2 2 2 4 5 8 4 4 5 9 10 15 17 17 14 17 3 4 7
17 12 8 5 4 7 8 13 14 4 2 3 1 1 2 2 2 3 2 5 5 10 3 4 4 5 4 2 5 6 6 8 8 6 7 5 6 9 12 12 14 14 3 1 4 4 4
17 13 9 6 6 8 11 11 14 9 3 3 2 2 4 3 2 1 6 5 10 1 4 4 2 1 3 5 8 8 9 10 11 12 10 7 9 11 14 13 15 2 8 7 7 9 0
18 14 10 8 7 8 10 14 12 15 8 5 3 1 3 7 10 7 11 11 10 9 8 6 5 4 4 3 3 5 6 4 9 10 11 12 7 6 8 12 12 5 4 5 5 6 10
20 15 11 9 7 8 10 11 16 12 8 7 10 4 5 11 6 9 9 8 7 6 4 3 2 3 3 2 2 3 3 3 3 7 9 11 11 7 9 12 14 5 5 11 5 6 11
21 17 13 11 9 11 11 12 15 10 12 8 6 8 5 8 6 4 5 4 3 3 4 4 2 1 1 2 6 7 6 3 2 3 6 6 9 15 16 11 3 4 14 12 2 6 15
22 18 14 12 11 12 13 13 13 12 12 7 6 11 3 6 11 12 8 10 2 4 2 2 2 1 2 3 2 2 1 1 2 3 4 2 4 4 5 4 6 11 0 3 6 13 17
23 20 17 14 12 13 15 16 16 11 9 6 9 6 11 11 8 13 16 15 11 12 4 3 2 4 6 4 4 4 4 3 6 4 5 1 3 1 2 3 8 8 9 6 12 14 16
Wind_Direction
36 12 15 19 16 10 8 5 3 355 347 345 341 341 340 338 336 333 329 326 325 326 324 322 321 323 297 230 88 47 337 333 295 321 354 343 297 308 276 351 74 238 294 347 281 254 255
27 5 3 5 4 360 359 357 353 348 342 341 341 341 339 338 334 330 328 324 322 323 322 321 315 320 257 216 294 27 353 321 8 331 15 1 7 340 285 291 268 352 313 283 274 239 235
23 1 358 359 357 355 353 354 349 345 343 342 343 341 339 336 333 329 327 323 319 315 314 314 314 297 263 84 357 336 60 45 358 11 334 40 344 314 352 274 12 292 299 283 236 217 251
7 358 356 354 351 350 351 349 348 346 344 345 344 342 340 338 335 332 326 318 307 300 301 299 299 276 66 68 324 355 303 132 70 47 45 331 316 284 235 351 251 253 246 292 359 164 164
17 359 351 348 349 349 348 348 347 345 343 343 342 342 339 337 334 330 328 316 293 287 278 279 269 244 100 173 174 0 334 336 328 226 334 294 282 298 135 235 271 207 248 251 220 186 138
25 2 351 347 349 347 345 346 345 344 343 342 340 339 336 333 331 326 324 295 294 288 241 242 263 197 135 74 40 321 28 318 308 307 254 231 229 238 221 224 233 304 292 294 283 199 208
34 360 353 351 346 346 345 343 345 344 344 343 340 336 334 333 330 320 329 264 290 55 44 46 25 0 72 73 216 111 11 302 249 240 276 175 255 232 247 226 245 319 288 278 280 271 221
1 346 346 347 346 345 345 345 344 344 343 343 339 335 333 330 327 314 299 52 63 322 163 93 101 110 81 317 183 73 322 299 231 291 162 228 241 16 8 358 328 285 275 278 283 275 275
325 335 344 342 342 345 346 345 344 343 343 342 339 335 333 328 326 357 77 67 330 303 274 116 85 43 48 319 45 45 338 346 315 301 270 270 321 81 348 300 278 264 261 275 286 296 288
180 324 331 334 340 341 343 344 344 342 343 342 338 337 334 328 347 331 53 350 322 303 173 147 147 106 183 343 152 3 27 21 244 319 329 274 64 343 297 274 274 286 337 335 321 322 279
198 223 321 329 334 337 339 341 343 343 343 340 336 333 334 349 315 28 331 320 292 247 304 66 106 85 108 334 157 122 359 244 288 307 14 280 336 339 300 286 331 266 7 318 306 294 301
200 217 290 330 330 334 338 339 340 343 341 339 334 329 332 323 87 5 323 307 273 89 247 123 78 316 251 135 117 143 208 182 234 288 239 255 258 252 285 319 296 327 312 290 262 251 267
203 228 289 325 330 331 336 337 338 339 340 335 329 323 350 327 350 330 311 273 359 210 85 97 48 351 335 42 146 12 72 46 38 359 357 326 279 124 64 301 249 207 290 312 280 197 240
203 214 286 317 329 332 334 337 337 337 338 333 323 304 286 48 317 287 243 311 253 29 95 222 264 284 274 8 124 71 206 165 45 358 292 313 264 30 26 38 323 301 281 253 269 254 278
208 203 270 315 327 333 337 337 338 337 337 330 319 215 227 49 255 254 272 245 292 22 16 346 254 255 161 157 345 181 69 53 46 16 4 346 243 351 75 355 333 343 313 338 293 285 277
200 214 262 317 327 332 334 336 337 337 339 336 303 243 132 358 253 253 237 231 107 46 332 275 273 359 333 106 318 287 150 59 94 34 340 55 289 263 59 2 304 47 346 325 293 276 262
190 195 232 312 332 330 334 333 338 335 339 349 279 278 70 59 184 238 247 72 115 68 348 6 358 309 80 2 338 304 73 78 50 20 312 5 233 340 344 274 348 323 337 346 331 277 288
189 186 217 305 343 333 334 334 337 332 337 360 294 272 337 186 286 252 59 29 336 102 24 37 33 18 337 49 295 261 80 78 61 11 351 58 295 282 279 291 79 71 37 15 273 296 311
181 182 174 320 348 340 335 339 338 334 326 338 233 356 217 108 248 180 124 83 45 59 32 28 117 20 13 121 282 39 111 131 77 32 31 35 261 310 161 85 110 68 355 332 295 273 267
175 170 164 55 4 343 339 342 341 330 302 189 271 237 151 136 260 293 146 169 132 25 68 37 117 211 162 184 127 191 186 145 92 346 327 51 250 229 260 305 326 302 308 293 282 277 295
166 164 157 112 37 353 349 349 344 317 268 254 191 174 125 147 90 75 92 138 148 164 91 333 104 304 86 200 206 222 73 143 144 144 183 267 255 263 274 303 300 284 279 291 294 305 258
162 161 159 103 47 4 7 360 356 339 165 160 181 159 108 84 13 127 121 115 168 114 168 178 241 137 188 257 2 28 145 173 253 165 229 191 266 298 274 271 271 280 284 293 276 298 281
159 158 149 117 67 28 19 19 13 357 180 117 88 80 112 149 153 216 145 127 112 126 54 43 110 157 192 60 23 349 337 314 296 278 263 243 255 289 278 302 314 290 294 213 298 82 313
157 155 142 129 85 46 31 28 30 25 351 93 120 159 155 153 119 124 122 116 125 96 138 137 101 312 52 332 303 256 245 253 252 249 239 254 264 268 280 292 282 80 50 70 353 294 248
155 148 151 124 101 67 47 41 38 46 60 94 56 106 115 118 119 107 121 112 109 87 94 124 58 46 341 300 275 263 204 219 224 225 216 220 260 287 274 283 297 116 35 20 3 317 44
156 150 142 124 103 85 61 52 45 52 67 86 46 320 77 122 48 129 128 161 143 134 148 106 94 17 327 291 260 253 263 48 154 165 194 203 216 242 284 283 284 84 4 330 83 250 6
153 145 141 132 114 95 72 59 57 50 55 93 54 7 79 103 18 12 99 119 34 73 88 131 142 208 87 269 251 255 273 69 264 284 167 217 233 241 256 280 111 20 319 293 316 310 335
145 151 145 137 118 97 77 62 58 60 60 83 66 5 91 93 53 53 51 66 54 17 147 131 142 299 224 244 303 352 260 74 319 289 7 315 316 316 339 294 278 9 309 27 333 340 338
152 146 148 134 119 102 83 64 55 55 60 62 58 25 59 85 98 94 70 47 37 32 67 23 60 34 21 342 17 345 331 341 330 295 44 249 29 310 25 24 95 4 94 59 10 344 333